﻿_id,日時,平均風速(m/s),平均風向,最大瞬間風速(m/s),最大風速時風向,気温(℃),湿度(%),10分間移動積算雨量(mm),1時間移動積算雨量(mm),日雨量(mm),累計雨量(mm)
1,2020-03-09T00:00:00,1.4,東南東,2.2,東南東,5.4,89.8,0,0,11.5,15
2,2020-03-09T00:01:00,1.3,東,2.2,東南東,5.1,88.3,0,0,0,15
3,2020-03-09T00:02:00,1.3,東,2.2,東南東,5,89.1,0,0,0,15
4,2020-03-09T00:03:00,1.1,東,2.2,東南東,5.3,90.8,0,0,0,15
5,2020-03-09T00:04:00,1,東,2.1,東南東,5.4,91.9,0,0,0,15
6,2020-03-09T00:05:00,0.9,東北東,1.8,東,5.4,92.1,0,0,0,15
7,2020-03-09T00:06:00,0.8,東北東,1.8,東,5.3,91.7,0,0,0,15
8,2020-03-09T00:07:00,0.8,東北東,1.8,東,5.3,92,0,0,0,15
9,2020-03-09T00:08:00,0.8,東北東,1.6,北,5.1,91.2,0,0,0,15
10,2020-03-09T00:09:00,0.8,東北東,1.6,北,5.3,91.6,0,0,0,15
11,2020-03-09T00:10:00,0.9,東北東,1.8,東南東,5.4,92.9,0,0,0,15
12,2020-03-09T00:11:00,1,東北東,1.8,東南東,5.3,92.6,0,0,0,15
13,2020-03-09T00:12:00,1,東北東,2,東,5.4,92.2,0,0,0,15
14,2020-03-09T00:13:00,1.1,東北東,2,東,5.4,92.5,0,0,0,15
15,2020-03-09T00:14:00,1.1,東北東,2,東,5.3,92.1,0,0,0,15
16,2020-03-09T00:15:00,1.1,東,2,東,5.2,91.5,0,0,0,15
17,2020-03-09T00:16:00,1.1,東,2,東,5.2,91.3,0,0,0,15
18,2020-03-09T00:17:00,1.1,東,2,東,5.4,92.2,0,0,0,15
19,2020-03-09T00:18:00,1.1,東,2,東,5.4,92.6,0,0,0,15
20,2020-03-09T00:19:00,1.1,東南東,2,東,5.4,92.2,0,0,0,15
21,2020-03-09T00:20:00,1,東,2,東,5.3,91.8,0,0,0,15
22,2020-03-09T00:21:00,1,東,2,東,5.3,91.7,0,0,0,15
23,2020-03-09T00:22:00,0.9,東南東,1.9,東,5.3,91.7,0,0,0,15
24,2020-03-09T00:23:00,0.9,東南東,1.7,南東,5.3,91.9,0,0,0,15
25,2020-03-09T00:24:00,1,東南東,2,南南東,5.2,91.5,0,0,0,15
26,2020-03-09T00:25:00,1.1,東南東,2.1,南南東,5.2,91.5,0,0,0,15
27,2020-03-09T00:26:00,1.2,東南東,2.1,南南東,5,91.5,0,0,0,15
28,2020-03-09T00:27:00,1.1,東南東,2.1,南南東,5,91.4,0,0,0,15
29,2020-03-09T00:28:00,1,南東,2.1,南南東,5,91.7,0,0,0,15
30,2020-03-09T00:29:00,1,南東,2.1,南南東,5.1,92.1,0,0,0,15
31,2020-03-09T00:30:00,1,南東,2.1,南南東,5.2,92.5,0,0,0,15
32,2020-03-09T00:31:00,1,南東,2.1,南南東,5.3,93.4,0,0,0,15
33,2020-03-09T00:32:00,0.9,南東,2.1,南南東,5.4,93.6,0,0,0,15
34,2020-03-09T00:33:00,0.9,南東,2.1,南南東,5.3,92.8,0,0,0,15
35,2020-03-09T00:34:00,0.9,南東,2.1,南南東,5.8,93.9,0,0,0,15
36,2020-03-09T00:35:00,0.9,南東,2.1,南南東,6.1,95.2,0,0,0,15
37,2020-03-09T00:36:00,1,南東,2.3,南東,6.2,94.8,0,0,0,15
38,2020-03-09T00:37:00,1.1,南東,2.3,南東,6.3,94.4,0,0,0,15
39,2020-03-09T00:38:00,1.1,南東,2.3,南東,6.1,92.8,0,0,0,15
40,2020-03-09T00:39:00,1.1,南東,2.3,南東,5.9,91.4,0,0,0,15
41,2020-03-09T00:40:00,1.2,南東,2.3,南東,5.7,90.4,0,0,0,15
42,2020-03-09T00:41:00,1.1,東南東,2.3,南東,5.6,89.9,0,0,0,15
43,2020-03-09T00:42:00,1.3,東南東,2.3,南東,5.7,90.7,0,0,0,15
44,2020-03-09T00:43:00,1.4,東南東,2.7,東南東,5.9,91.5,0,0,0,15
45,2020-03-09T00:44:00,1.4,東南東,2.7,東南東,5.8,91.2,0,0,0,15
46,2020-03-09T00:45:00,1.5,東南東,3.2,北東,5.2,89,0,0,0,15
47,2020-03-09T00:46:00,1.5,東,3.2,北東,5,87.4,0,0,0,15
48,2020-03-09T00:47:00,1.6,東,3.2,北東,5.4,90.6,0,0,0,15
49,2020-03-09T00:48:00,1.7,東,3.2,北東,5.5,91.7,0,0,0,15
50,2020-03-09T00:49:00,1.8,東,3.2,北東,5.5,91.6,0,0,0,15
51,2020-03-09T00:50:00,1.8,東,3.2,北東,5.1,90.3,0,0,0,15
52,2020-03-09T00:51:00,1.8,東,3.2,北東,4.8,88.2,0,0,0,15
53,2020-03-09T00:52:00,1.8,東北東,3.2,北東,4.9,89.5,0,0,0,15
54,2020-03-09T00:53:00,1.7,東北東,3.2,北東,5,92,0,0,0,15
55,2020-03-09T00:54:00,1.7,東北東,3.2,北東,5,91.8,0,0,0,15
56,2020-03-09T00:55:00,1.5,東北東,2.9,東北東,5.1,92.5,0,0,0,15
57,2020-03-09T00:56:00,1.4,東北東,2.7,東南東,5.3,93.1,0,0,0,15
58,2020-03-09T00:57:00,1.3,東北東,2.7,東南東,5.6,94.1,0,0,0,15
59,2020-03-09T00:58:00,1.1,東北東,2.7,東南東,5.4,93.9,0,0,0,15
60,2020-03-09T00:59:00,1,北東,2,北東,5.1,92,0,0,0,15
61,2020-03-09T01:00:00,1,東北東,2,北東,5,91.3,0,0,0,15
62,2020-03-09T01:01:00,0.9,東北東,2,北東,5.1,91.7,0,0,0,15
63,2020-03-09T01:02:00,0.9,東北東,2,北東,5.1,92.3,0,0,0,15
64,2020-03-09T01:03:00,0.9,東北東,1.8,北東,5.2,92.6,0,0,0,15
65,2020-03-09T01:04:00,0.8,東北東,1.6,北東,5.3,93,0,0,0,15
66,2020-03-09T01:05:00,0.8,東北東,1.6,北東,5.4,93.4,0,0,0,15
67,2020-03-09T01:06:00,0.8,東北東,1.6,北東,5.2,92.3,0,0,0,15
68,2020-03-09T01:07:00,0.9,北東,1.6,北東,5.2,91.7,0,0,0,15
69,2020-03-09T01:08:00,0.9,北東,1.6,北東,5.1,91.7,0,0,0,15
70,2020-03-09T01:09:00,1,北東,1.6,北東,5.1,91.9,0,0,0,15
71,2020-03-09T01:10:00,1,北東,1.6,北東,5.1,92.1,0,0,0,15
72,2020-03-09T01:11:00,0.9,北東,1.6,北東,5.1,92.1,0,0,0,15
73,2020-03-09T01:12:00,0.9,北東,1.6,北東,5.1,92.4,0,0,0,15
74,2020-03-09T01:13:00,0.9,北東,1.5,東北東,5.1,92.3,0,0,0,15
75,2020-03-09T01:14:00,0.9,北東,1.7,東北東,4.9,92,0,0,0,15
76,2020-03-09T01:15:00,1,東北東,2,東,5,91.9,0,0,0,15
77,2020-03-09T01:16:00,1.1,東北東,2.1,東,4.9,92.2,0,0,0,15
78,2020-03-09T01:17:00,1.1,東北東,2.5,東,5,92.2,0,0,0,15
79,2020-03-09T01:18:00,1.1,東北東,2.5,東,4.9,92.3,0,0,0,15
80,2020-03-09T01:19:00,1.1,東北東,2.5,東,4.9,92.2,0,0,0,15
81,2020-03-09T01:20:00,1,東,2.5,東,4.9,92,0,0,0,15
82,2020-03-09T01:21:00,1,東北東,2.5,東,4.8,92,0,0,0,15
83,2020-03-09T01:22:00,1,東北東,2.5,東,4.7,91.9,0,0,0,15
84,2020-03-09T01:23:00,0.9,東北東,2.5,東,4.7,92.3,0,0,0,15
85,2020-03-09T01:24:00,0.9,北東,2.5,東,4.7,92.6,0,0,0,15
86,2020-03-09T01:25:00,0.8,北東,2.5,東,4.9,92.8,0,0,0,15
87,2020-03-09T01:26:00,0.7,北東,2.5,東,4.8,92.9,0,0,0,15
88,2020-03-09T01:27:00,0.6,北東,1.5,東,4.7,92.4,0,0,0,15
89,2020-03-09T01:28:00,0.6,北東,1.4,東北東,4.8,92.7,0,0,0,15
90,2020-03-09T01:29:00,0.6,北東,1.4,東北東,4.9,93.3,0,0,0,15
91,2020-03-09T01:30:00,0.7,北東,1.5,東北東,4.8,93.3,0,0,0,15
92,2020-03-09T01:31:00,0.7,北東,1.5,東北東,4.8,92.9,0,0,0,15
93,2020-03-09T01:32:00,0.8,北東,1.5,東北東,4.7,92.7,0,0,0,15
94,2020-03-09T01:33:00,0.8,北東,1.6,東北東,4.8,93,0,0,0,15
95,2020-03-09T01:34:00,0.8,東北東,1.6,東北東,4.8,93.2,0,0,0,15
96,2020-03-09T01:35:00,0.8,東北東,1.6,東北東,5.1,93.5,0,0,0,15
97,2020-03-09T01:36:00,0.8,東北東,1.6,東北東,4.9,93.8,0,0,0,15
98,2020-03-09T01:37:00,0.8,東北東,1.6,東北東,4.9,92.6,0,0,0,15
99,2020-03-09T01:38:00,0.8,東,1.6,東北東,4.8,92.2,0,0,0,15
100,2020-03-09T01:39:00,0.8,東,1.6,東北東,4.8,92.4,0,0,0,15
101,2020-03-09T01:40:00,0.8,東,1.6,東北東,4.7,92.4,0,0,0,15
102,2020-03-09T01:41:00,0.8,東,1.6,東北東,4.7,92.2,0,0,0,15
103,2020-03-09T01:42:00,0.8,東南東,1.6,東北東,4.7,92.8,0,0,0,15
104,2020-03-09T01:43:00,0.8,東南東,1.7,南東,4.7,93,0,0,0,15
105,2020-03-09T01:44:00,0.9,東南東,1.8,南東,4.6,92.8,0,0,0,15
106,2020-03-09T01:45:00,1,南東,1.8,南東,4.6,92.9,0,0,0,15
107,2020-03-09T01:46:00,1.1,南東,1.8,南東,4.7,93.2,0,0,0,15
108,2020-03-09T01:47:00,1.2,南東,1.8,南東,4.7,93.7,0,0,0,15
109,2020-03-09T01:48:00,1.3,南東,1.8,南東,4.7,93.7,0,0,0,15
110,2020-03-09T01:49:00,1.3,南東,1.8,南東,4.8,93.8,0,0,0,15
111,2020-03-09T01:50:00,1.3,東南東,1.8,南東,4.9,94.3,0,0,0,15
112,2020-03-09T01:51:00,1.3,東南東,1.8,南東,4.9,94.7,0,0,0,15
113,2020-03-09T01:52:00,1.3,東南東,1.8,南東,4.8,94.2,0,0,0,15
114,2020-03-09T01:53:00,1.3,東,1.8,南東,4.4,92.7,0,0,0,15
115,2020-03-09T01:54:00,1.2,東,1.8,東,4.4,92,0,0,0,15
116,2020-03-09T01:55:00,1.1,東北東,1.8,東,4.4,92.5,0,0,0,15
117,2020-03-09T01:56:00,1.1,東北東,1.8,東,4.3,92.7,0,0,0,15
118,2020-03-09T01:57:00,1.1,北東,1.8,東,4.3,92.8,0,0,0,15
119,2020-03-09T01:58:00,1,北東,1.8,東,4.2,93.1,0,0,0,15
120,2020-03-09T01:59:00,0.9,北東,1.7,東,4.3,93.4,0,0,0,15
121,2020-03-09T02:00:00,0.8,北東,1.6,東北東,4.4,93.9,0,0,0,15
122,2020-03-09T02:01:00,0.9,北東,1.5,東,4.4,94.3,0,0,0,15
123,2020-03-09T02:02:00,0.9,北東,1.5,東,4.3,93.9,0,0,0,15
124,2020-03-09T02:03:00,0.9,東北東,1.5,東,4.3,93.9,0,0,0,15
125,2020-03-09T02:04:00,1,東北東,1.9,東,4.3,94,0,0,0,15
126,2020-03-09T02:05:00,1,東,1.9,東,4.3,94.1,0,0,0,15
127,2020-03-09T02:06:00,1.1,東,1.9,東,4.3,94.1,0,0,0,15
128,2020-03-09T02:07:00,1.1,東,1.9,東,4.4,94.4,0,0,0,15
129,2020-03-09T02:08:00,1.2,東南東,2,東,4.3,94.3,0,0,0,15
130,2020-03-09T02:09:00,1.3,東南東,2.5,東,4.3,94.2,0,0,0,15
131,2020-03-09T02:10:00,1.4,東南東,2.5,東,4.4,94.8,0,0,0,15
132,2020-03-09T02:11:00,1.4,東,2.5,東,4.4,94.6,0,0,0,15
133,2020-03-09T02:12:00,1.5,東,2.5,東,4.4,94.5,0,0,0,15
134,2020-03-09T02:13:00,1.5,東,2.5,東,4.4,94.4,0,0,0,15
135,2020-03-09T02:14:00,1.6,東,2.5,東,4.4,94.4,0,0,0,15
136,2020-03-09T02:15:00,1.6,東北東,2.7,北東,4.4,94.6,0,0,0,15
137,2020-03-09T02:16:00,1.7,東北東,2.7,北東,4.3,94.4,0,0,0,15
138,2020-03-09T02:17:00,1.8,東北東,2.7,北東,4.3,93.9,0,0,0,15
139,2020-03-09T02:18:00,1.8,東北東,2.7,北東,4.2,94,0,0,0,15
140,2020-03-09T02:19:00,1.8,北東,2.7,北東,4.3,94.1,0,0,0,15
141,2020-03-09T02:20:00,1.8,北東,2.7,北東,4.2,94.1,0,0,0,15
142,2020-03-09T02:21:00,1.7,北東,2.7,北東,4.2,94.1,0,0,0,15
143,2020-03-09T02:22:00,1.6,北東,2.7,北東,4.2,94.3,0,0,0,15
144,2020-03-09T02:23:00,1.5,東北東,2.7,北東,4.2,94.4,0,0,0,15
145,2020-03-09T02:24:00,1.4,東北東,2.7,北東,4.2,94.3,0,0,0,15
146,2020-03-09T02:25:00,1.2,東,2.6,北東,4.2,94.4,0,0,0,15
147,2020-03-09T02:26:00,1.1,東,2.6,北東,4.4,94.7,0,0,0,15
148,2020-03-09T02:27:00,1,東南東,2.6,北東,4.5,95.1,0,0,0,15
149,2020-03-09T02:28:00,0.9,東南東,2.6,北東,4.4,95,0,0,0,15
150,2020-03-09T02:29:00,0.8,東南東,1.8,北東,4.3,94.6,0,0,0,15
151,2020-03-09T02:30:00,0.8,東南東,1.6,東南東,4.4,94.5,0,0,0,15
152,2020-03-09T02:31:00,0.9,東南東,1.7,東,4.4,94.3,0,0,0,15
153,2020-03-09T02:32:00,0.9,東南東,1.8,東南東,4.3,94.4,0,0,0,15
154,2020-03-09T02:33:00,1,東南東,1.9,東,4.2,93.9,0,0,0,15
155,2020-03-09T02:34:00,1.1,東南東,1.9,東,4.2,93.8,0,0,0,15
156,2020-03-09T02:35:00,1.1,東南東,1.9,東,4.2,93.9,0,0,0,15
157,2020-03-09T02:36:00,1.2,東,1.9,東,4.2,94,0,0,0,15
158,2020-03-09T02:37:00,1.2,東,1.9,東,4.2,94.2,0,0,0,15
159,2020-03-09T02:38:00,1.3,東,2,東北東,4.2,94.3,0,0,0,15
160,2020-03-09T02:39:00,1.3,東,2,東北東,4.1,94.1,0,0,0,15
161,2020-03-09T02:40:00,1.3,東,2,東北東,4.1,94.1,0,0,0,15
162,2020-03-09T02:41:00,1.3,東,2,東北東,4.1,94.2,0,0,0,15
163,2020-03-09T02:42:00,1.3,東,2,東北東,3.9,93.8,0,0,0,15
164,2020-03-09T02:43:00,1.2,東,2,東北東,3.8,93.5,0,0,0,15
165,2020-03-09T02:44:00,1.3,東,2,東北東,3.8,93.8,0,0,0,15
166,2020-03-09T02:45:00,1.3,東,2.1,東南東,3.9,94.1,0,0,0,15
167,2020-03-09T02:46:00,1.4,東,2.2,東南東,3.9,94.4,0,0,0,15
168,2020-03-09T02:47:00,1.5,東南東,2.2,東南東,3.9,94.6,0,0,0,15
169,2020-03-09T02:48:00,1.5,東南東,2.2,東南東,3.9,94.7,0,0,0,15
170,2020-03-09T02:49:00,1.6,東南東,2.2,東南東,4,94.8,0,0,0,15
171,2020-03-09T02:50:00,1.6,東南東,2.2,東南東,4.1,95.1,0,0,0,15
172,2020-03-09T02:51:00,1.7,東南東,2.2,東南東,4.1,95.2,0,0,0,15
173,2020-03-09T02:52:00,1.7,東南東,2.2,東南東,4.2,95.2,0,0,0,15
174,2020-03-09T02:53:00,1.7,東南東,2.2,東南東,4.2,95.3,0,0,0,15
175,2020-03-09T02:54:00,1.7,東,2.2,東南東,4.1,95.2,0,0,0,15
176,2020-03-09T02:55:00,1.6,東,2.2,東南東,4.1,95.1,0,0,0,15
177,2020-03-09T02:56:00,1.5,東,2.1,東,3.9,94.7,0,0,0,15
178,2020-03-09T02:57:00,1.5,東,2.1,東,3.8,94.5,0,0,0,15
179,2020-03-09T02:58:00,1.4,東,2.1,東,3.9,94.5,0,0,0,15
180,2020-03-09T02:59:00,1.4,東北東,2.1,東,3.8,94.5,0,0,0,15
181,2020-03-09T03:00:00,1.3,東北東,2.1,東,3.8,94.6,0,0,0,15
182,2020-03-09T03:01:00,1.2,東北東,2,東,3.8,94.6,0,0,0,15
183,2020-03-09T03:02:00,1.2,東北東,1.9,東南東,3.8,94.6,0,0,0,15
184,2020-03-09T03:03:00,1.2,東北東,2.1,東南東,3.7,94.7,0,0,0,15
185,2020-03-09T03:04:00,1.3,東北東,2.4,東北東,3.7,94.7,0,0,0,15
186,2020-03-09T03:05:00,1.4,東北東,2.8,東北東,3.7,94.7,0,0,0,15
187,2020-03-09T03:06:00,1.4,東北東,2.8,東北東,3.6,94.6,0,0,0,15
188,2020-03-09T03:07:00,1.5,東,2.8,東北東,3.6,94.6,0,0,0,15
189,2020-03-09T03:08:00,1.5,東,2.8,東北東,3.6,94.7,0,0,0,15
190,2020-03-09T03:09:00,1.6,東北東,2.8,東北東,3.6,94.7,0,0,0,15
191,2020-03-09T03:10:00,1.6,東,2.8,東北東,3.7,95.1,0,0,0,15
192,2020-03-09T03:11:00,1.6,東北東,2.8,東北東,3.9,95.4,0,0,0,15
193,2020-03-09T03:12:00,1.6,東北東,2.8,東北東,3.8,95.5,0,0,0,15
194,2020-03-09T03:13:00,1.6,東北東,2.8,東北東,4.2,95.4,0,0,0,15
195,2020-03-09T03:14:00,1.6,東北東,2.8,東北東,4.1,95.7,0,0,0,15
196,2020-03-09T03:15:00,1.5,東北東,2.6,東北東,3.9,95.4,0,0,0,15
197,2020-03-09T03:16:00,1.4,東,2.6,東北東,3.7,94.9,0,0,0,15
198,2020-03-09T03:17:00,1.3,東,2.6,東北東,3.8,94.5,0,0,0,15
199,2020-03-09T03:18:00,1.3,東,2.6,東北東,3.8,95.1,0,0,0,15
200,2020-03-09T03:19:00,1.2,東南東,2.6,東北東,3.7,94.8,0,0,0,15
201,2020-03-09T03:20:00,1.2,東南東,2.6,東北東,3.8,94.7,0,0,0,15
202,2020-03-09T03:21:00,1.2,東南東,2.6,東北東,3.9,95.2,0,0,0,15
203,2020-03-09T03:22:00,1.2,南東,2.6,東北東,3.9,95.2,0,0,0,15
204,2020-03-09T03:23:00,1.2,南東,2,南東,3.9,95.1,0,0,0,15
205,2020-03-09T03:24:00,1.3,南東,2.4,南東,3.9,95,0,0,0,15
206,2020-03-09T03:25:00,1.3,南東,2.4,南東,3.9,95,0,0,0,15
207,2020-03-09T03:26:00,1.4,南東,2.4,南東,3.9,95,0,0,0,15
208,2020-03-09T03:27:00,1.3,南東,2.4,南東,4,95.1,0,0,0,15
209,2020-03-09T03:28:00,1.3,南東,2.4,南東,4,95.2,0,0,0,15
210,2020-03-09T03:29:00,1.2,南東,2.4,南東,4.1,95.2,0,0,0,15
211,2020-03-09T03:30:00,1.3,南東,2.4,南東,4.1,95.2,0,0,0,15
212,2020-03-09T03:31:00,1.3,南東,2.4,南東,4.1,95.2,0,0,0,15
213,2020-03-09T03:32:00,1.3,南東,2.4,南東,4.2,95.2,0,0,0,15
214,2020-03-09T03:33:00,1.3,南東,2.4,南東,4.2,95.2,0,0,0,15
215,2020-03-09T03:34:00,1.3,南東,2.2,南南東,4.2,95.1,0,0,0,15
216,2020-03-09T03:35:00,1.3,南東,2,東南東,4.2,95.1,0,0,0,15
217,2020-03-09T03:36:00,1.2,東南東,2,東南東,4.1,95,0,0,0,15
218,2020-03-09T03:37:00,1.3,東南東,2,東南東,4.1,94.7,0,0,0,15
219,2020-03-09T03:38:00,1.3,東南東,2,東南東,4.1,94.6,0,0,0,15
220,2020-03-09T03:39:00,1.3,東南東,2.4,東,4.1,94.5,0,0,0,15
221,2020-03-09T03:40:00,1.4,東南東,2.5,東,4,94.4,0,0,0,15
222,2020-03-09T03:41:00,1.3,東南東,2.5,東,4.1,94.5,0,0,0,15
223,2020-03-09T03:42:00,1.3,東南東,2.5,東,4,94.5,0,0,0,15
224,2020-03-09T03:43:00,1.2,東南東,2.5,東,3.9,94.1,0,0,0,15
225,2020-03-09T03:44:00,1.2,東,2.5,東,3.8,93.9,0,0,0,15
226,2020-03-09T03:45:00,1.1,東,2.5,東,3.8,93.8,0,0,0,15
227,2020-03-09T03:46:00,1.1,東,2.5,東,3.8,93.9,0,0,0,15
228,2020-03-09T03:47:00,1,東,2.5,東,3.8,94.2,0,0,0,15
229,2020-03-09T03:48:00,1,東,2.5,東,3.8,94.1,0,0,0,15
230,2020-03-09T03:49:00,0.9,東,2.5,東,3.8,94.1,0,0,0,15
231,2020-03-09T03:50:00,0.8,東,1.9,東,3.7,94.1,0,0,0,15
232,2020-03-09T03:51:00,0.7,東,1.4,東北東,3.7,94.1,0,0,0,15
233,2020-03-09T03:52:00,0.7,東,1.4,東北東,3.7,94.3,0,0,0,15
234,2020-03-09T03:53:00,0.7,東,1.3,東北東,3.7,94.3,0,0,0,15
235,2020-03-09T03:54:00,0.7,東北東,1.3,東北東,3.6,94.1,0,0,0,15
236,2020-03-09T03:55:00,0.7,東北東,1.3,東北東,3.6,94,0,0,0,15
237,2020-03-09T03:56:00,0.7,東北東,1.3,東北東,3.6,94.2,0,0,0,15
238,2020-03-09T03:57:00,0.7,東北東,1.4,東,3.7,94.5,0,0,0,15
239,2020-03-09T03:58:00,0.7,東北東,1.4,東,3.7,94.7,0,0,0,15
240,2020-03-09T03:59:00,0.8,東北東,1.4,東,3.6,94.6,0,0,0,15
241,2020-03-09T04:00:00,0.8,東,1.5,南東,3.6,94.6,0,0,0,15
242,2020-03-09T04:01:00,0.8,東,1.5,南東,3.6,94.6,0,0,0,15
243,2020-03-09T04:02:00,0.7,東,1.5,南東,3.6,94.7,0,0,0,15
244,2020-03-09T04:03:00,0.7,東,1.5,南東,3.7,94.6,0,0,0,15
245,2020-03-09T04:04:00,0.7,東南東,1.5,南東,3.9,95.1,0,0,0,15
246,2020-03-09T04:05:00,0.7,東南東,1.5,南東,3.9,95.2,0,0,0,15
247,2020-03-09T04:06:00,0.7,東南東,1.5,南東,3.8,94.9,0,0,0,15
248,2020-03-09T04:07:00,0.8,東南東,1.5,南東,3.8,94.8,0,0,0,15
249,2020-03-09T04:08:00,0.8,東南東,1.5,南東,3.7,94.6,0,0,0,15
250,2020-03-09T04:09:00,0.8,東南東,1.7,東,3.7,94.5,0,0,0,15
251,2020-03-09T04:10:00,0.8,東,1.7,東,3.7,94.5,0,0,0,15
252,2020-03-09T04:11:00,0.8,東,1.7,東,3.7,94.5,0,0,0,15
253,2020-03-09T04:12:00,0.9,東,1.7,東,3.7,94.5,0,0,0,15
254,2020-03-09T04:13:00,1,東,1.7,東,3.7,94.6,0,0,0,15
255,2020-03-09T04:14:00,1,東,1.7,東,3.8,94.7,0,0,0,15
256,2020-03-09T04:15:00,1.1,東,1.7,東,3.8,94.8,0,0,0,15
257,2020-03-09T04:16:00,1.2,東南東,1.7,東,3.7,94.8,0,0,0,15
258,2020-03-09T04:17:00,1.2,東南東,1.7,東,3.8,94.9,0,0,0,15
259,2020-03-09T04:18:00,1.3,東南東,1.7,東,3.8,94.9,0,0,0,15
260,2020-03-09T04:19:00,1.2,東南東,1.7,東南東,3.8,94.8,0,0,0,15
261,2020-03-09T04:20:00,1.2,東南東,1.7,東南東,3.8,94.7,0,0,0,15
262,2020-03-09T04:21:00,1.2,東南東,1.7,東南東,3.8,94.7,0,0,0,15
263,2020-03-09T04:22:00,1.2,東南東,1.7,東南東,3.7,94.7,0,0,0,15
264,2020-03-09T04:23:00,1.1,東,1.7,東南東,3.7,94.7,0,0,0,15
265,2020-03-09T04:24:00,1.1,東,1.7,東南東,3.7,94.5,0,0,0,15
266,2020-03-09T04:25:00,1.1,東,1.7,東南東,3.7,94.4,0,0,0,15
267,2020-03-09T04:26:00,1,東,1.8,東北東,3.6,94.4,0,0,0,15
268,2020-03-09T04:27:00,1,東,1.8,東北東,3.5,94.1,0,0,0,15
269,2020-03-09T04:28:00,1,東,1.8,東北東,3.2,93.3,0,0,0,15
270,2020-03-09T04:29:00,1,東,1.8,東北東,3.2,93.1,0,0,0,15
271,2020-03-09T04:30:00,0.9,東,1.8,東北東,3.2,93.7,0,0,0,15
272,2020-03-09T04:31:00,0.9,東,1.8,東北東,3.2,93.7,0,0,0,15
273,2020-03-09T04:32:00,0.8,東北東,1.8,東北東,3.1,93.8,0,0,0,15
274,2020-03-09T04:33:00,0.8,東北東,1.8,東北東,3,93.5,0,0,0,15
275,2020-03-09T04:34:00,0.7,東北東,1.8,東北東,3,93.4,0,0,0,15
276,2020-03-09T04:35:00,0.6,東,1.8,東北東,3,93.8,0,0,0,15
277,2020-03-09T04:36:00,0.5,東,1.8,東北東,3.1,94.3,0,0,0,15
278,2020-03-09T04:37:00,0.4,東,1.4,東北東,2.9,94,0,0,0,15
279,2020-03-09T04:38:00,0.3,東,0.9,南南東,3.2,94.4,0,0,0,15
280,2020-03-09T04:39:00,0.3,東,0.9,南南東,3,94.8,0,0,0,15
281,2020-03-09T04:40:00,0.3,東,0.9,南南東,3,94.2,0,0,0,15
282,2020-03-09T04:41:00,0.3,東,1,南東,2.9,94,0,0,0,15
283,2020-03-09T04:42:00,0.4,東南東,1.5,南東,3,94.1,0,0,0,15
284,2020-03-09T04:43:00,0.6,東南東,1.7,南東,3.1,94.5,0,0,0,15
285,2020-03-09T04:44:00,0.7,東南東,1.7,南東,3.1,94.8,0,0,0,15
286,2020-03-09T04:45:00,0.8,東南東,1.7,南東,3.3,95,0,0,0,15
287,2020-03-09T04:46:00,0.9,東南東,2,東,3.3,95.2,0,0,0,15
288,2020-03-09T04:47:00,1,東南東,2,東,3.3,95.3,0,0,0,15
289,2020-03-09T04:48:00,1,東南東,2,東,3.1,94.7,0,0,0,15
290,2020-03-09T04:49:00,1,東南東,2,東,2.8,93.9,0,0,0,15
291,2020-03-09T04:50:00,1.1,東南東,2,東,2.6,93.3,0,0,0,15
292,2020-03-09T04:51:00,1.2,東,2,東,2.6,93.1,0,0,0,15
293,2020-03-09T04:52:00,1.1,東,2,東,2.5,93.2,0,0,0,15
294,2020-03-09T04:53:00,1.1,東,2,東,2.5,93.3,0,0,0,15
295,2020-03-09T04:54:00,1,東北東,2,東,2.5,93.6,0,0,0,15
296,2020-03-09T04:55:00,1,東北東,2,東,2.5,93.9,0,0,0,15
297,2020-03-09T04:56:00,0.9,東北東,1.6,東北東,2.5,94.2,0,0,0,15
298,2020-03-09T04:57:00,0.9,北東,1.6,東北東,2.6,94.4,0,0,0,15
299,2020-03-09T04:58:00,0.9,北東,1.6,東北東,2.7,94.8,0,0,0,15
300,2020-03-09T04:59:00,1,東北東,2.4,東南東,2.8,95.2,0,0,0,15
301,2020-03-09T05:00:00,1.1,東北東,2.4,東南東,2.9,95.4,0,0,0,15
302,2020-03-09T05:01:00,1.1,東北東,2.4,東南東,3,95.5,0,0,0,15
303,2020-03-09T05:02:00,1.1,東北東,2.4,東南東,3,95.4,0,0,0,15
304,2020-03-09T05:03:00,1.1,東北東,2.4,東南東,3.1,95.4,0,0,0,15
305,2020-03-09T05:04:00,1.1,東,2.4,東南東,3.1,95.4,0,0,0,15
306,2020-03-09T05:05:00,1.1,東,2.4,東南東,3.1,95.4,0,0,0,15
307,2020-03-09T05:06:00,1.1,東,2.4,東南東,3.1,95.3,0,0,0,15
308,2020-03-09T05:07:00,1.2,東,2.4,東南東,3.2,95.3,0,0,0,15
309,2020-03-09T05:08:00,1.2,東,2.4,東南東,3.2,95.4,0,0,0,15
310,2020-03-09T05:09:00,1.1,東,2.3,東南東,3.2,95.4,0,0,0,15
311,2020-03-09T05:10:00,1,東,1.9,東南東,3.2,95.4,0,0,0,15
312,2020-03-09T05:11:00,1,東,1.7,東北東,3.3,95.3,0,0,0,15
313,2020-03-09T05:12:00,1,東,1.7,東北東,3.4,95.5,0,0,0,15
314,2020-03-09T05:13:00,1,東,1.7,東北東,3.5,95.6,0,0,0,15
315,2020-03-09T05:14:00,1.1,東,1.8,東,3.4,95.6,0,0,0,15
316,2020-03-09T05:15:00,1.2,東,2.2,南東,3.3,95.2,0,0,0,15
317,2020-03-09T05:16:00,1.3,東,2.2,南東,3.3,95.2,0,0,0,15
318,2020-03-09T05:17:00,1.3,東,2.2,南東,3.4,95.3,0,0,0,15
319,2020-03-09T05:18:00,1.3,東南東,2.2,南東,3.4,95.3,0,0,0,15
320,2020-03-09T05:19:00,1.3,東南東,2.2,南東,3.6,95.4,0,0,0,15
321,2020-03-09T05:20:00,1.3,東南東,2.2,南東,3.6,95.6,0,0,0,15
322,2020-03-09T05:21:00,1.3,東南東,2.2,南東,3.5,95.5,0,0,0,15
323,2020-03-09T05:22:00,1.3,東南東,2.2,南東,3.5,95.4,0,0,0,15
324,2020-03-09T05:23:00,1.2,南東,2.2,南東,3.6,95.3,0,0,0,15
325,2020-03-09T05:24:00,1.1,南東,2.2,南東,3.6,95.4,0,0,0,15
326,2020-03-09T05:25:00,1,南東,2.1,南東,3.5,95.3,0,0,0,15
327,2020-03-09T05:26:00,0.9,南東,1.9,南東,3.5,95.2,0,0,0,15
328,2020-03-09T05:27:00,0.8,南東,1.6,東,3.4,95.1,0,0,0,15
329,2020-03-09T05:28:00,0.7,南東,1.4,東南東,3.3,95,0,0,0,15
330,2020-03-09T05:29:00,0.7,南南東,1.4,東南東,3.4,95,0,0,0,15
331,2020-03-09T05:30:00,0.6,南,1.2,東南東,3.5,95.2,0,0,0,15
332,2020-03-09T05:31:00,0.5,南,1,南,3.5,95.3,0,0,0,15
333,2020-03-09T05:32:00,0.5,南南西,1,南,3.4,95.3,0,0,0,15
334,2020-03-09T05:33:00,0.5,南西,1.2,北北西,3.2,94.8,0,0,0,15
335,2020-03-09T05:34:00,0.5,西南西,1.2,北北西,3,93.9,0,0,0,15
336,2020-03-09T05:35:00,0.5,西,1.2,北北西,3,93.9,0,0,0,15
337,2020-03-09T05:36:00,0.5,西,1.2,北北西,3.2,94.6,0,0,0,15
338,2020-03-09T05:37:00,0.5,西北西,1.2,北北西,3.2,95.1,0,0,0,15
339,2020-03-09T05:38:00,0.5,西北西,1.2,北北西,3.2,95.1,0,0,0,15
340,2020-03-09T05:39:00,0.5,西北西,1.2,北北西,3.3,95.2,0,0,0,15
341,2020-03-09T05:40:00,0.5,西,1.2,北北西,3.3,95.3,0,0,0,15
342,2020-03-09T05:41:00,0.6,西,1.2,北北西,3.3,95.3,0,0,0,15
343,2020-03-09T05:42:00,0.5,西,1.2,北北西,3.4,95.3,0,0,0,15
344,2020-03-09T05:43:00,0.4,西,1.1,北北西,3.4,95.3,0,0,0,15
345,2020-03-09T05:44:00,0.3,西,1,北西,3.5,95.4,0,0,0,15
346,2020-03-09T05:45:00,0.3,西南西,0.8,南西,3.6,95.5,0,0,0,15
347,2020-03-09T05:46:00,0.3,西南西,0.8,南西,3.6,95.5,0,0,0,15
348,2020-03-09T05:47:00,0.3,西南西,0.8,南西,3.6,95.5,0,0,0,15
349,2020-03-09T05:48:00,0.3,南西,0.8,南西,3.4,95.2,0,0,0,15
350,2020-03-09T05:49:00,0.3,南西,0.8,南西,3.4,95,0,0,0,15
351,2020-03-09T05:50:00,0.2,静穏,0.8,南西,3.2,94.4,0,0,0,15
352,2020-03-09T05:51:00,0.2,静穏,0.8,南西,3.2,94.2,0,0,0,15
353,2020-03-09T05:52:00,0.3,南東,0.8,南西,3.1,94.4,0,0,0,15
354,2020-03-09T05:53:00,0.3,東,0.8,南西,2.9,93.8,0,0,0,15
355,2020-03-09T05:54:00,0.4,北東,0.8,南西,2.9,93.9,0,0,0,15
356,2020-03-09T05:55:00,0.4,北東,0.8,南西,3.1,94.3,0,0,0,15
357,2020-03-09T05:56:00,0.3,北東,0.7,北,3.1,94.8,0,0,0,15
358,2020-03-09T05:57:00,0.3,北東,0.7,北,2.8,94.4,0,0,0,15
359,2020-03-09T05:58:00,0.3,北北東,0.7,北,2.8,94,0,0,0,15
360,2020-03-09T05:59:00,0.3,北北東,0.7,北,2.9,94.3,0,0,0,15
361,2020-03-09T06:00:00,0.3,北北東,0.7,北,2.8,94.6,0,0,0,15
362,2020-03-09T06:01:00,0.4,北北東,0.7,北,2.7,94.2,0,0,0,15
363,2020-03-09T06:02:00,0.4,北北東,0.7,北,2.7,94.3,0,0,0,15
364,2020-03-09T06:03:00,0.4,北北東,0.7,北東,2.7,94.3,0,0,0,15
365,2020-03-09T06:04:00,0.3,北東,0.7,北東,2.8,94.7,0,0,0,15
366,2020-03-09T06:05:00,0.3,北東,0.7,北東,2.9,95.1,0,0,0,15
367,2020-03-09T06:06:00,0.3,東北東,0.7,北東,2.9,95.2,0,0,0,15
368,2020-03-09T06:07:00,0.3,東北東,0.7,北東,2.9,95.1,0,0,0,15
369,2020-03-09T06:08:00,0.4,東北東,0.7,北東,2.9,95.1,0,0,0,15
370,2020-03-09T06:09:00,0.4,東,0.7,北東,2.9,95.1,0,0,0,15
371,2020-03-09T06:10:00,0.3,東,0.7,北東,2.9,95,0,0,0,15
372,2020-03-09T06:11:00,0.3,東,0.7,東,2.9,94.9,0,0,0,15
373,2020-03-09T06:12:00,0.3,東,0.7,東,2.9,95.1,0,0,0,15
374,2020-03-09T06:13:00,0.3,東,0.7,東,2.9,95.1,0,0,0,15
375,2020-03-09T06:14:00,0.3,東,0.7,東,2.9,95,0,0,0,15
376,2020-03-09T06:15:00,0.3,東,0.7,東,2.9,95.1,0,0,0,15
377,2020-03-09T06:16:00,0.3,東,0.6,東北東,2.9,95.1,0,0,0,15
378,2020-03-09T06:17:00,0.3,東,0.6,東北東,2.9,95,0,0,0,15
379,2020-03-09T06:18:00,0.3,東北東,0.6,東北東,2.9,95,0,0,0,15
380,2020-03-09T06:19:00,0.3,東北東,0.6,東北東,3,95.1,0,0,0,15
381,2020-03-09T06:20:00,0.3,東北東,0.6,東北東,3,95.1,0,0,0,15
382,2020-03-09T06:21:00,0.3,東北東,0.6,東北東,3,95.1,0,0,0,15
383,2020-03-09T06:22:00,0.2,静穏,0.6,東北東,3,95.2,0,0,0,15
384,2020-03-09T06:23:00,0.2,静穏,0.6,東北東,3,95.1,0,0,0,15
385,2020-03-09T06:24:00,0.3,東北東,0.7,南東,2.9,95,0,0,0,15
386,2020-03-09T06:25:00,0.3,東,0.8,南東,2.7,94.5,0,0,0,15
387,2020-03-09T06:26:00,0.3,東,0.8,南東,2.7,94.2,0,0,0,15
388,2020-03-09T06:27:00,0.3,東,0.8,南東,2.7,94.5,0,0,0,15
389,2020-03-09T06:28:00,0.3,東南東,0.8,南東,3,94.8,0,0,0,15
390,2020-03-09T06:29:00,0.3,東南東,0.8,南東,3.1,95.4,0,0,0,15
391,2020-03-09T06:30:00,0.3,東,0.8,南東,3.2,95.4,0,0,0,15
392,2020-03-09T06:31:00,0.3,東,0.8,南東,2.8,95.1,0,0,0,15
393,2020-03-09T06:32:00,0.3,東,0.8,南東,2.7,94.3,0,0,0,15
394,2020-03-09T06:33:00,0.3,東,0.8,南東,2.6,94,0,0,0,15
395,2020-03-09T06:34:00,0.4,東北東,1,北,2.5,93.6,0,0,0,15
396,2020-03-09T06:35:00,0.3,北東,1,北,2.6,94,0,0,0,15
397,2020-03-09T06:36:00,0.3,北東,1,北,2.7,94.6,0,0,0,15
398,2020-03-09T06:37:00,0.3,北北東,1,北,2.7,94.7,0,0,0,15
399,2020-03-09T06:38:00,0.3,北北東,1,北,2.6,94.7,0,0,0,15
400,2020-03-09T06:39:00,0.3,北,1,北,2.7,94.7,0,0,0,15
401,2020-03-09T06:40:00,0.3,北北西,1,北,2.9,95,0,0,0,15
402,2020-03-09T06:41:00,0.4,北北西,1,北,2.8,95.2,0,0,0,15
403,2020-03-09T06:42:00,0.4,南南西,1,北,2.7,94.9,0,0,0,15
404,2020-03-09T06:43:00,0.3,南南西,1,北,2.7,94.7,0,0,0,15
405,2020-03-09T06:44:00,0.3,南,0.8,北,2.8,95.1,0,0,0,15
406,2020-03-09T06:45:00,0.3,南,0.7,南東,2.9,95.2,0,0,0,15
407,2020-03-09T06:46:00,0.4,南,0.7,南東,2.9,95.3,0,0,0,15
408,2020-03-09T06:47:00,0.4,南,0.7,南東,2.9,95.3,0,0,0,15
409,2020-03-09T06:48:00,0.3,南,0.7,南東,3,95.3,0,0,0,15
410,2020-03-09T06:49:00,0.3,南,0.7,南東,2.9,95.2,0,0,0,15
411,2020-03-09T06:50:00,0.3,南南東,0.7,南東,3.2,95.3,0,0,0,15
412,2020-03-09T06:51:00,0.3,南南東,0.6,南,3,95.5,0,0,0,15
413,2020-03-09T06:52:00,0.3,南南東,0.6,南,2.7,94.8,0,0,0,15
414,2020-03-09T06:53:00,0.3,東南東,0.7,北東,2.6,94.4,0,0,0,15
415,2020-03-09T06:54:00,0.3,東,0.7,北東,2.8,94.5,0,0,0,15
416,2020-03-09T06:55:00,0.2,静穏,0.7,北東,2.8,95,0,0,0,15
417,2020-03-09T06:56:00,0.2,静穏,0.7,北東,2.9,95.1,0,0,0,15
418,2020-03-09T06:57:00,0.2,静穏,0.7,北東,2.9,95.2,0,0,0,15
419,2020-03-09T06:58:00,0.2,静穏,0.7,北東,2.9,95.2,0,0,0,15
420,2020-03-09T06:59:00,0.2,静穏,0.7,北東,2.9,95.2,0,0,0,15
421,2020-03-09T07:00:00,0.3,東,0.8,南東,2.8,95.1,0,0,0,15
422,2020-03-09T07:01:00,0.3,東南東,0.8,南東,2.8,94.8,0,0,0,15
423,2020-03-09T07:02:00,0.3,東南東,0.8,南東,3,94.9,0,0,0,15
424,2020-03-09T07:03:00,0.3,東南東,0.8,南東,3,95.3,0,0,0,15
425,2020-03-09T07:04:00,0.3,南東,0.8,南東,3,95.3,0,0,0,15
426,2020-03-09T07:05:00,0.3,南東,0.8,南東,3,95.3,0,0,0,15
427,2020-03-09T07:06:00,0.3,南東,0.8,南東,3.1,95.3,0,0,0,15
428,2020-03-09T07:07:00,0.4,南東,0.8,南東,3.1,95.3,0,0,0,15
429,2020-03-09T07:08:00,0.4,南東,0.8,南東,3,95.2,0,0,0,15
430,2020-03-09T07:09:00,0.4,南東,0.8,南東,3.1,95.2,0,0,0,15
431,2020-03-09T07:10:00,0.3,南東,0.8,南東,3.2,95.4,0,0,0,15
432,2020-03-09T07:11:00,0.3,南南東,0.7,南東,3.2,95.4,0,0,0,15
433,2020-03-09T07:12:00,0.3,南南東,0.7,南東,3.3,95.4,0,0,0,15